Probability
0 0 0 0 0 0 0 0 0 0 3 3 3 16 26 35 45 52 68 81 90 94 90 90 94 97 90 90 84 90 90 90 90 81 81 81 84 84 81 77 74 77 71 74
0 0 0 0 0 0 0 0 0 0 3 3 10 13 29 35 45 45 55 71 84 90 90 94 97 94 97 97 90 90 90 90 87 87 84 84 84 84 81 77 77 77 68 71
0 0 0 0 0 0 0 0 0 0 0 3 10 16 32 42 48 48 58 65 71 74 90 100 100 100 97 100 94 90 97 90 87 87 87 81 81 77 74 77 87 77 71 74
0 0 0 0 0 0 0 0 0 3 0 0 0 3 29 32 58 65 55 61 68 71 81 90 100 94 97 97 90 87 94 94 90 87 87 84 87 81 77 94 77 87 81 77
0 0 0 0 0 0 0 0 3 0 0 0 0 0 6 19 45 61 74 74 71 74 77 87 84 90 90 97 94 94 94 90 87 90 87 94 84 84 74 74 77 81 74 77
0 0 0 0 0 0 0 3 0 0 0 0 0 0 3 10 32 48 71 74 87 84 87 94 90 94 94 94 90 90 90 90 90 87 84 84 77 81 74 84 74 68 71 71
0 0 0 0 0 0 0 0 0 0 0 0 0 0 3 13 32 48 61 77 90 90 94 94 87 90 97 100 90 87 90 84 84 84 84 84 84 84 87 77 74 74 52 65
0 0 0 0 0 0 0 0 0 0 0 0 0 0 6 19 35 48 74 81 81 90 87 84 87 90 90 84 77 87 84 81 81 81 81 81 81 71 71 81 65 68 61 52
0 0 0 0 0 0 0 0 0 0 0 0 0 0 10 39 45 61 71 81 81 81 90 84 84 87 90 84 84 77 81 81 84 81 84 81 74 71 61 71 71 68 68 48
0 0 0 0 0 0 0 0 0 0 0 0 0 0 0 23 35 71 74 81 84 90 90 84 84 84 87 87 84 81 81 84 77 77 74 68 68 68 65 65 71 65 65 55
0 0 0 0 0 0 0 0 0 0 0 0 0 0 0 13 32 52 74 84 90 87 87 87 84 87 87 87 87 87 87 87 77 71 68 74 65 65 65 61 68 68 61 52
0 0 0 0 0 0 0 0 0 0 0 0 0 0 6 16 16 48 71 77 84 90 87 84 87 87 87 87 87 87 84 84 77 71 71 71 61 55 61 61 65 61 58 52
0 0 0 0 0 0 0 0 0 0 0 0 0 0 6 29 26 45 77 77 87 90 84 81 87 87 87 90 87 84 84 81 74 68 68 65 52 52 55 58 55 52 52 52
0 0 0 0 0 0 0 0 0 0 0 0 0 0 10 23 35 39 68 81 87 87 84 84 87 87 90 90 90 84 77 77 71 74 65 65 52 52 45 48 45 42 42 45
0 0 0 0 0 0 0 0 0 0 0 0 0 3 13 23 26 35 58 68 87 87 87 81 81 81 87 87 84 81 77 74 71 74 65 55 52 45 45 42 39 42 39 35
0 0 0 3 3 0 0 0 0 0 3 3 3 3 26 26 29 32 48 61 84 87 87 87 87 87 84 84 84 81 77 77 68 61 55 52 48 48 42 35 35 35 32 32
0 0 0 0 3 3 3 6 6 6 6 6 6 23 26 26 55 55 55 65 74 81 87 87 87 84 87 87 84 77 81 74 68 61 48 48 48 42 42 35 32 35 29 29
0 0 0 0 3 0 3 13 13 16 16 19 29 29 35 48 61 61 65 68 71 77 84 84 84 87 87 81 81 81 74 71 65 58 48 45 45 42 35 29 26 29 29 29
0 0 0 0 0 3 10 19 13 23 26 35 39 42 55 61 58 65 74 81 77 81 84 81 81 81 77 77 71 74 74 71 61 61 48 45 42 45 42 29 29 29 32 29
0 0 0 0 0 0 6 10 16 32 29 39 45 61 65 74 45 58 74 84 84 84 84 81 77 71 74 71 71 74 68 68 55 52 42 39 39 39 39 39 32 32 35 29
0 0 0 0 0 3 16 23 23 16 39 55 58 61 68 71 81 84 77 84 77 77 74 77 74 74 71 68 71 77 65 65 58 52 42 35 35 39 39 39 39 29 23 26
0 0 0 0 0 3 16 32 45 58 61 61 61 61 61 77 77 81 77 77 74 68 65 68 68 68 71 68 61 65 61 55 45 48 39 35 35 35 32 35 32 29 19 13
6 6 3 6 13 35 42 48 45 52 61 65 61 58 68 61 71 74 71 65 65 65 61 61 61 61 61 68 61 65 61 52 45 39 42 42 35 35 32 29 26 23 19 10
13 10 13 23 39 35 35 42 45 52 52 58 58 58 55 61 61 65 52 52 52 55 61 61 61 55 61 61 61 61 55 52 48 42 42 42 39 32 19 23 16 16 13 6
23 26 29 29 32 32 29 35 35 42 42 48 48 52 55 52 48 52 45 45 45 48 42 48 45 48 48 48 45 48 48 39 39 39 35 35 29 23 16 13 13 10 10 10
16 26 19 19 32 32 32 32 32 39 39 35 42 48 42 42 35 39 42 42 39 35 35 32 35 39 45 39 35 35 39 39 32 23 29 23 19 16 13 13 10 6 3 0
Height
5931 5934 5936 5938 5940 5942 5943 5945 5946 5946 5945 5946 5945 5945 5944 5943 5941 5939 5937 5935 5933 5931 5929 5927 5925 5922 5920 5918 5915 5913 5912 5910 5908 5907 5905 5905 5904 5903 5903 5903 5903 5903 5903 5903
5929 5931 5933 5935 5937 5939 5941 5943 5944 5944 5944 5945 5945 5944 5943 5942 5941 5939 5937 5936 5934 5931 5929 5927 5925 5923 5920 5918 5916 5913 5912 5910 5908 5907 5906 5905 5904 5903 5903 5902 5902 5902 5902 5902
5925 5928 5930 5933 5935 5937 5939 5941 5942 5943 5943 5943 5944 5944 5943 5941 5940 5939 5937 5935 5934 5931 5929 5927 5925 5923 5920 5918 5916 5913 5911 5910 5908 5907 5905 5904 5904 5903 5902 5902 5902 5901 5902 5902
5921 5924 5927 5930 5932 5935 5937 5938 5939 5941 5942 5943 5943 5946 5942 5940 5939 5938 5937 5935 5933 5931 5929 5927 5924 5922 5920 5918 5916 5914 5911 5910 5908 5906 5905 5904 5903 5902 5901 5901 5901 5901 5901 5900
5918 5921 5924 5926 5929 5932 5934 5935 5937 5938 5940 5941 5941 5942 5943 5939 5938 5937 5936 5934 5932 5931 5928 5926 5924 5922 5920 5917 5915 5913 5911 5909 5907 5906 5904 5903 5902 5901 5901 5900 5900 5900 5899 5899
5914 5917 5920 5923 5926 5928 5930 5933 5934 5936 5938 5939 5939 5940 5940 5938 5936 5935 5934 5933 5931 5930 5928 5925 5923 5921 5919 5916 5914 5912 5910 5908 5906 5905 5903 5902 5902 5901 5900 5899 5899 5899 5898 5898
5910 5913 5916 5919 5922 5925 5928 5931 5934 5935 5937 5938 5936 5936 5937 5935 5934 5934 5933 5931 5930 5928 5926 5924 5922 5920 5918 5915 5913 5911 5908 5906 5905 5904 5902 5901 5900 5900 5899 5898 5898 5897 5897 5897
5906 5909 5912 5915 5918 5921 5924 5928 5931 5934 5936 5935 5932 5933 5934 5933 5932 5931 5931 5930 5928 5926 5925 5923 5921 5918 5916 5914 5911 5909 5907 5905 5904 5903 5901 5900 5899 5898 5898 5897 5896 5896 5896 5895
5901 5904 5907 5910 5913 5917 5919 5922 5926 5929 5929 5931 5931 5930 5930 5930 5929 5929 5928 5928 5926 5925 5923 5921 5919 5917 5914 5912 5909 5907 5905 5904 5903 5901 5900 5899 5898 5897 5896 5895 5894 5894 5894 5893
5895 5899 5902 5905 5908 5911 5915 5918 5921 5924 5925 5928 5928 5928 5928 5926 5926 5926 5926 5925 5924 5923 5921 5919 5916 5914 5912 5910 5907 5905 5904 5902 5901 5900 5898 5897 5896 5895 5894 5893 5893 5892 5892 5891
5890 5894 5897 5900 5903 5906 5910 5913 5915 5919 5921 5924 5926 5928 5924 5923 5923 5923 5923 5923 5922 5920 5919 5917 5914 5912 5910 5908 5905 5903 5902 5900 5899 5897 5896 5895 5894 5893 5892 5891 5890 5890 5890 5889
5883 5888 5891 5895 5897 5900 5904 5907 5910 5914 5915 5918 5922 5925 5920 5920 5920 5920 5920 5920 5919 5918 5916 5914 5912 5910 5908 5906 5903 5901 5900 5898 5897 5896 5894 5893 5892 5891 5890 5889 5888 5887 5887 5886
5877 5881 5885 5889 5893 5895 5898 5901 5905 5908 5910 5912 5916 5920 5916 5916 5916 5917 5917 5916 5916 5915 5913 5912 5910 5908 5905 5903 5902 5900 5898 5896 5895 5894 5893 5892 5891 5889 5888 5887 5886 5885 5884 5883
5870 5874 5880 5885 5887 5889 5892 5896 5899 5902 5905 5907 5910 5913 5912 5912 5913 5913 5913 5913 5912 5911 5910 5909 5907 5906 5904 5902 5900 5898 5896 5894 5893 5892 5891 5890 5889 5887 5886 5884 5883 5882 5881 5880
5863 5867 5872 5876 5879 5882 5886 5889 5892 5895 5899 5902 5904 5905 5907 5907 5908 5908 5908 5908 5908 5908 5907 5906 5905 5903 5902 5900 5898 5896 5894 5892 5891 5890 5889 5888 5886 5885 5883 5882 5880 5879 5878 5876
5855 5860 5864 5868 5872 5875 5879 5882 5885 5889 5892 5895 5897 5899 5901 5902 5903 5903 5904 5904 5904 5904 5903 5903 5902 5900 5899 5897 5895 5894 5892 5890 5889 5888 5886 5885 5884 5882 5881 5879 5877 5876 5874 5873
5848 5853 5857 5862 5865 5868 5871 5875 5879 5882 5885 5888 5891 5894 5895 5896 5897 5898 5899 5899 5899 5899 5899 5899 5898 5897 5895 5894 5892 5891 5889 5887 5886 5885 5883 5882 5881 5879 5877 5875 5874 5872 5871 5869
5840 5845 5850 5855 5858 5861 5867 5868 5872 5875 5878 5881 5883 5886 5888 5889 5891 5892 5893 5894 5894 5894 5894 5894 5893 5893 5891 5890 5888 5887 5885 5883 5882 5881 5879 5878 5876 5874 5873 5871 5869 5868 5866 5865
5833 5838 5842 5847 5850 5854 5857 5861 5865 5868 5871 5873 5876 5878 5880 5883 5884 5886 5887 5888 5888 5889 5889 5889 5889 5888 5887 5885 5884 5882 5881 5879 5878 5876 5875 5873 5871 5869 5867 5866 5864 5863 5861 5860
5825 5830 5835 5839 5844 5847 5851 5853 5857 5861 5862 5865 5868 5871 5873 5876 5878 5879 5880 5881 5882 5883 5883 5883 5883 5883 5882 5880 5879 5878 5876 5875 5874 5872 5869 5868 5866 5864 5862 5860 5859 5857 5856 5855
5818 5822 5826 5831 5835 5839 5841 5845 5849 5854 5855 5857 5860 5863 5865 5868 5870 5872 5873 5874 5875 5876 5876 5877 5877 5877 5876 5875 5874 5873 5871 5870 5868 5866 5864 5862 5860 5859 5857 5855 5853 5852 5851 5849
5810 5814 5818 5823 5827 5831 5832 5836 5841 5844 5846 5849 5852 5855 5857 5859 5862 5863 5865 5866 5868 5868 5869 5870 5870 5870 5870 5869 5867 5866 5865 5864 5862 5860 5858 5857 5855 5853 5851 5849 5848 5846 5845 5843
5800 5806 5810 5814 5819 5820 5823 5827 5831 5834 5838 5841 5844 5847 5849 5852 5854 5856 5857 5858 5859 5860 5861 5862 5863 5863 5863 5862 5862 5860 5859 5858 5857 5855 5853 5851 5849 5847 5845 5844 5842 5840 5839 5837
5790 5795 5800 5804 5807 5811 5815 5818 5822 5825 5828 5832 5835 5838 5841 5843 5845 5847 5849 5850 5851 5852 5853 5853 5854 5854 5855 5855 5854 5854 5853 5852 5850 5849 5847 5845 5843 5841 5839 5838 5836 5834 5833 5831
5781 5786 5789 5793 5798 5801 5805 5809 5812 5816 5819 5823 5826 5829 5832 5834 5836 5838 5840 5841 5842 5843 5844 5845 5845 5846 5846 5846 5846 5846 5845 5844 5843 5842 5841 5839 5837 5835 5833 5831 5829 5827 5826 5824
5772 5776 5780 5784 5789 5792 5796 5800 5803 5806 5810 5813 5816 5820 5822 5825 5827 5829 5831 5832 5833 5835 5835 5836 5837 5837 5837 5837 5837 5837 5837 5836 5835 5834 5833 5831 5829 5827 5826 5824 5822 5820 5818 5816
Wind_Speed
16 15 14 13 11 10 9 7 6 5 2 1 2 3 4 6 9 10 11 12 12 13 13 14 14 14 13 13 13 12 11 11 9 7 4 3 2 1 1 1 1 2 3 3
17 17 16 14 12 11 10 8 7 6 4 3 3 4 5 6 8 9 9 11 12 12 12 13 13 13 13 12 13 12 11 11 10 8 5 3 3 2 2 2 2 3 3 4
19 19 17 15 14 13 11 10 9 8 6 6 5 6 7 7 8 8 8 10 11 12 12 12 12 13 13 12 13 12 12 11 10 8 7 5 3 3 3 3 3 4 4 5
21 20 18 17 16 14 14 13 11 9 8 8 6 7 10 8 7 7 8 9 10 11 11 11 11 12 12 12 13 12 12 11 10 9 8 6 5 5 4 4 4 4 4 5
23 20 19 19 18 16 16 14 12 11 10 9 9 7 9 8 8 8 8 9 9 10 11 11 11 12 12 12 12 12 12 12 10 10 8 6 5 5 5 5 4 4 4 4
24 21 21 20 19 18 17 15 13 12 11 11 11 9 9 9 8 8 8 8 9 10 11 12 12 12 12 12 12 12 12 11 10 9 8 7 6 6 5 5 5 5 5 5
25 23 22 21 20 19 18 16 14 12 12 12 12 10 10 10 9 8 9 9 9 10 12 12 12 13 12 12 12 12 11 10 9 8 7 7 6 6 6 6 6 5 6 6
26 26 24 22 22 21 20 18 16 13 12 13 13 11 11 10 10 9 9 9 9 10 12 12 13 13 13 13 13 12 11 9 9 8 7 7 7 7 7 7 7 7 7 7
28 28 26 25 24 23 22 21 19 17 15 13 13 12 11 10 10 10 10 10 9 10 12 13 13 13 14 14 14 13 11 10 9 9 8 8 8 8 8 7 7 8 8 8
29 29 27 26 25 26 25 23 22 19 17 15 14 12 12 11 10 10 10 10 10 11 12 13 13 13 14 14 13 12 12 11 10 9 8 9 9 9 9 9 9 9 9 8
30 29 29 28 28 27 26 25 24 21 19 15 13 13 13 12 11 11 11 11 11 12 13 13 14 14 14 13 12 12 11 10 10 9 9 9 10 9 8 9 10 10 10 11
30 30 29 29 29 28 27 26 25 23 22 18 15 15 14 13 12 12 12 12 12 13 14 14 14 14 14 13 12 12 10 10 10 9 10 10 10 9 9 10 10 11 11 12
32 31 30 30 30 30 29 27 26 24 23 20 17 16 16 14 13 13 13 13 13 14 14 15 15 14 13 12 12 12 10 10 10 10 10 11 11 11 11 11 11 12 13 14
33 33 31 28 26 28 29 28 27 25 23 22 20 18 18 15 14 14 15 15 14 14 14 15 14 14 13 12 13 12 11 11 11 10 10 11 11 11 12 12 12 13 13 14
34 33 32 31 30 30 29 29 28 27 25 23 21 20 19 17 16 16 16 15 15 15 15 15 15 15 14 13 14 14 12 11 11 11 11 12 12 13 13 14 14 14 14 14
35 34 33 33 33 31 31 31 30 29 27 26 24 23 21 19 18 17 16 16 16 16 15 15 15 16 15 15 15 15 14 13 12 12 12 13 14 15 15 15 15 16 16 16
36 35 34 33 33 33 34 32 32 30 29 28 27 25 23 22 20 18 17 16 16 17 17 17 17 17 17 16 16 16 16 15 14 13 14 14 15 16 17 17 17 17 17 17
35 35 34 33 34 34 33 33 32 31 30 29 28 27 26 24 23 22 20 19 18 18 19 19 18 18 18 18 18 18 17 16 16 15 15 16 17 18 18 18 19 19 18 19
34 34 34 33 33 34 35 34 32 31 31 30 29 28 27 26 25 24 22 21 20 20 20 20 19 19 19 19 19 18 18 18 17 17 18 19 19 19 19 20 20 20 20 20
34 34 34 34 32 32 34 34 32 32 32 32 30 29 27 26 26 26 25 24 23 23 22 22 21 20 20 20 20 20 20 20 19 20 20 20 20 20 21 21 21 21 20 20
35 34 34 33 32 32 34 33 32 32 32 31 30 30 29 28 28 27 26 26 25 25 25 25 24 23 22 22 22 21 21 21 22 22 22 22 21 22 21 21 22 22 22 22
36 34 34 33 32 34 35 33 33 33 32 31 30 30 30 29 29 28 28 27 27 27 27 27 26 25 24 24 24 23 23 23 23 23 23 22 22 22 22 22 23 23 23 23
38 37 35 35 35 35 34 34 34 33 32 32 31 31 31 30 29 29 29 29 29 29 29 29 29 28 27 26 26 25 24 24 23 23 23 23 23 24 23 24 24 24 24 24
38 37 37 37 37 36 35 35 35 34 34 33 32 31 31 30 30 30 30 30 29 30 30 31 31 30 30 29 29 28 28 26 26 26 25 25 25 25 25 25 25 25 25 25
37 37 38 38 38 38 37 36 36 36 35 34 34 32 31 30 30 30 30 30 31 31 32 32 32 32 32 30 30 30 29 29 28 28 28 28 28 27 27 27 27 27 27 27
37 37 37 37 38 38 38 37 37 37 36 36 35 34 33 32 31 31 30 30 30 31 32 32 32 32 32 32 32 31 31 31 31 31 30 30 29 28 28 28 28 28 29 29
Wind_Direction
210 209 211 214 211 211 213 214 224 233 237 256 316 337 347 358 2 1 359 359 0 1 360 359 1 2 1 358 360 0 360 359 359 357 2 12 18 0 321 287 263 253 238 234
215 217 218 218 219 221 222 222 239 252 259 265 283 309 329 342 348 351 352 353 355 354 354 353 354 355 355 354 354 354 353 353 354 354 354 348 347 343 328 300 277 263 250 240
219 222 223 223 224 224 227 229 242 256 270 271 279 305 311 323 330 335 340 345 351 352 354 354 354 352 351 350 349 351 346 345 345 343 340 341 328 331 320 301 289 275 256 248
223 225 225 226 227 226 233 235 242 252 262 271 273 281 299 310 319 324 330 336 343 347 349 349 348 347 346 344 345 345 343 342 342 340 336 330 321 314 311 306 299 283 263 254
226 226 226 226 227 226 232 236 242 248 255 265 276 275 282 297 307 312 319 328 337 343 345 344 344 344 344 342 339 338 339 337 337 336 332 327 326 324 321 311 298 280 267 262
227 227 226 226 226 227 232 237 243 251 259 265 270 273 276 286 297 303 313 324 332 337 342 342 341 340 340 340 338 336 333 333 331 331 329 322 320 318 315 312 304 286 274 270
228 228 227 227 228 228 230 235 244 253 258 263 269 269 269 279 285 292 309 320 326 332 338 340 341 339 338 336 334 332 329 326 321 320 321 317 311 309 305 300 295 290 281 276
229 229 229 229 229 231 231 232 233 241 251 263 272 268 272 275 279 285 299 310 318 327 334 337 337 337 337 335 332 329 326 324 319 314 313 313 305 302 300 295 290 287 283 280
228 230 230 230 230 231 232 232 235 241 245 251 263 270 272 272 276 282 292 302 311 321 326 331 333 333 333 332 331 330 327 324 320 317 311 308 304 297 295 293 289 285 281 278
227 230 231 230 231 231 233 234 237 238 246 251 262 268 265 270 272 279 288 296 303 313 319 325 330 329 329 330 330 330 326 321 315 316 314 311 307 302 293 290 289 288 286 281
228 230 231 230 231 233 233 236 238 240 242 244 254 261 265 268 269 276 283 288 295 303 311 318 323 324 324 325 325 324 323 322 316 313 313 311 310 307 302 293 290 289 288 286
228 229 231 231 232 232 233 235 237 240 246 244 244 256 264 265 268 272 277 282 287 294 302 309 315 319 319 321 325 323 320 320 317 312 311 308 306 305 302 301 292 289 290 286
228 229 231 233 233 233 234 236 237 239 243 245 244 253 260 263 267 269 274 280 284 288 294 301 308 314 316 316 322 322 318 316 312 311 311 311 309 305 301 299 296 291 290 289
228 230 229 231 236 237 235 236 237 239 242 246 244 245 256 261 264 268 271 276 281 283 287 294 303 310 312 312 314 318 317 315 310 308 310 313 314 312 308 302 298 296 295 293
229 231 230 229 231 235 235 235 236 237 237 240 245 246 252 258 262 266 270 272 275 278 282 287 295 302 306 308 310 312 314 311 306 304 308 312 314 313 310 305 300 297 296 295
229 231 232 232 234 236 236 236 237 238 239 241 244 247 250 255 258 263 267 270 270 273 276 283 291 297 300 302 305 306 309 308 304 304 305 307 308 309 307 303 298 296 294 295
230 231 231 233 235 237 237 236 238 240 242 243 246 248 250 252 256 259 263 267 269 269 270 278 287 292 293 297 299 300 303 304 302 302 304 304 306 306 303 302 299 296 295 296
228 229 230 231 233 234 237 238 239 241 242 244 245 248 249 252 254 256 259 262 266 266 267 273 280 287 291 294 294 297 296 297 297 298 302 302 303 303 301 299 298 297 296 297
227 228 229 230 233 236 238 238 238 240 242 244 245 248 249 250 252 253 254 257 260 262 266 270 275 280 285 289 289 293 293 291 295 296 299 302 301 300 300 299 296 294 294 294
225 227 229 231 231 236 241 239 239 240 243 244 245 247 248 248 249 252 252 255 257 259 264 267 271 274 279 283 287 288 289 291 293 295 297 299 298 299 299 298 297 293 291 291
225 226 228 231 233 236 238 238 238 240 242 243 244 246 247 246 248 251 252 253 256 258 261 263 266 269 274 278 283 285 286 289 291 294 295 297 295 296 297 296 297 294 290 289
225 227 230 232 234 237 239 238 238 241 242 244 244 245 246 247 248 250 251 253 254 257 258 261 265 268 272 275 280 283 285 287 290 293 294 295 295 295 295 296 295 294 292 289
227 227 230 232 234 237 240 240 241 243 244 244 244 245 246 247 248 249 250 252 254 255 256 258 261 266 270 274 279 282 285 287 290 294 295 295 294 294 294 295 294 293 292 291
230 231 232 234 235 237 239 241 242 243 244 245 245 246 247 247 248 249 250 252 255 254 255 258 260 263 267 271 275 278 282 286 287 289 291 293 294 293 293 292 292 291 291 290
231 232 234 235 236 238 239 241 242 243 245 245 246 248 248 248 249 250 251 251 253 253 254 257 258 261 264 269 272 275 278 282 283 285 288 290 291 292 292 292 291 291 290 289
231 232 233 235 236 238 239 241 242 243 245 246 247 249 250 249 250 251 253 253 254 255 257 260 261 262 264 267 269 273 276 280 282 283 285 287 288 289 290 290 291 290 290 289